TimeCST,TemperatureF,Dew PointF,Humidity,Sea Level PressureIn,VisibilityMPH,Wind Direction,Wind SpeedMPH,Gust SpeedMPH,PrecipitationIn,Events,Conditions,WindDirDegrees,DateUTC
12:00 AM,-40,-48,45,30.04,,North,8.1,,,,,0,2013-01-14 06:00:00
12:00 AM,-38.2,-47.2,61,30.04,2.2,North,11.5,-,N/A,,Clear,360,2013-01-14 06:00:00
12:01 AM,-38.2,-47.2,61,30.05,2.5,North,11.5,-,N/A,,Clear,350,2013-01-14 06:01:00
12:08 AM,-40.0,-49.0,60,30.05,3.0,NNE,9.2,-,N/A,,Clear,20,2013-01-14 06:08:00
12:20 AM,-40.0,-47.2,67,30.04,2.5,NNE,9.2,-,N/A,,Clear,20,2013-01-14 06:20:00
12:22 AM,-40.0,-49.0,60,30.04,2.2,NNE,9.2,-,N/A,,Clear,30,2013-01-14 06:22:00
12:30 AM,-40.0,-49.0,60,30.04,2.5,NNE,9.2,-,N/A,,Clear,20,2013-01-14 06:30:00
12:31 AM,-40.0,-49.0,60,30.04,3.0,North,9.2,-,N/A,,Clear,10,2013-01-14 06:31:00
12:37 AM,-41.8,-50.8,60,30.04,6.0,North,10.4,-,N/A,,Haze,10,2013-01-14 06:37:00
1:00 AM,-40.0,-49.0,60,30.04,7.0,North,9.2,-,N/A,,Clear,350,2013-01-14 07:00:00
1:25 AM,-40.0,-49.0,60,30.03,5.0,NNW,5.8,-,N/A,,Haze,330,2013-01-14 07:25:00
1:31 AM,-41.8,-50.8,60,30.03,2.5,WNW,5.8,-,N/A,,Partly Cloudy,290,2013-01-14 07:31:00
1:32 AM,-41.8,-50.8,60,30.03,2.2,West,5.8,-,N/A,,Scattered Clouds,280,2013-01-14 07:32:00
1:44 AM,-43.6,-52.6,60,30.03,2.5,WNW,4.6,-,N/A,,Partly Cloudy,300,2013-01-14 07:44:00
1:46 AM,-43.6,-52.6,60,30.03,3.0,NW,4.6,-,N/A,,Partly Cloudy,310,2013-01-14 07:46:00
1:52 AM,-43.6,-50.8,67,30.03,3.0,NNW,6.9,-,N/A,Snow,Light Snow,330,2013-01-14 07:52:00
2:00 AM,-43.6,-50.8,67,30.02,4.0,NW,5.8,-,N/A,Snow,Light Snow,320,2013-01-14 08:00:00
2:02 AM,-43.6,-50.8,67,30.02,5.0,NW,5.8,-,N/A,,Haze,320,2013-01-14 08:02:00
2:03 AM,-43.6,-50.8,67,30.02,6.0,NNW,5.8,-,N/A,,Haze,330,2013-01-14 08:03:00
2:36 AM,-38.2,-47.2,61,30.03,4.0,WNW,5.8,-,N/A,,Haze,290,2013-01-14 08:36:00
2:39 AM,-40.0,-49.0,60,30.03,2.5,NW,4.6,-,N/A,,Clear,320,2013-01-14 08:39:00
2:42 AM,-40.0,-49.0,60,30.03,2.0,NW,4.6,-,N/A,,Partly Cloudy,310,2013-01-14 08:42:00
2:46 AM,-41.8,-50.8,60,30.03,2.5,WNW,5.8,-,N/A,,Partly Cloudy,290,2013-01-14 08:46:00
2:47 AM,-41.8,-50.8,60,30.03,3.0,WNW,5.8,-,N/A,,Partly Cloudy,290,2013-01-14 08:47:00
2:57 AM,-43.6,-50.8,67,30.03,2.5,WNW,5.8,-,N/A,,Clear,300,2013-01-14 08:57:00
2:59 AM,-43.6,-50.8,67,30.03,2.0,West,5.8,-,N/A,,Clear,280,2013-01-14 08:59:00
3:00 AM,-43.6,-50.8,67,30.03,2.0,West,5.8,-,N/A,,Clear,280,2013-01-14 09:00:00
3:03 AM,-43.6,-52.6,60,30.03,1.2,West,5.8,-,N/A,,Clear,280,2013-01-14 09:03:00
3:19 AM,-43.6,-52.6,60,30.01,1.0,West,4.6,-,N/A,,Partly Cloudy,270,2013-01-14 09:19:00
3:24 AM,-43.6,-52.6,60,30.01,0.5,West,5.8,-,N/A,Fog,Light Freezing Fog,270,2013-01-14 09:24:00
3:35 AM,-43.6,-52.6,60,30.01,0.6,West,4.6,-,N/A,,Scattered Clouds,270,2013-01-14 09:35:00
3:54 AM,-43.6,-52.6,60,30.01,1.5,WNW,8.1,-,N/A,,Partly Cloudy,290,2013-01-14 09:54:00
3:57 AM,-45.4,-54.4,60,30.01,2.5,West,8.1,-,N/A,,Partly Cloudy,280,2013-01-14 09:57:00
4:00 AM,-45.4,-54.4,60,30.01,2.5,West,8.1,-,N/A,,Partly Cloudy,280,2013-01-14 10:00:00
4:01 AM,-45.4,-54.4,60,30.01,2.2,West,8.1,-,N/A,,Clear,280,2013-01-14 10:01:00
4:10 AM,-45.4,-54.4,60,30.01,2.5,WNW,9.2,-,N/A,,Clear,290,2013-01-14 10:10:00
4:11 AM,-45.4,-54.4,60,30.01,3.0,WNW,9.2,-,N/A,,Clear,290,2013-01-14 10:11:00
4:13 AM,-45.4,-54.4,60,30.01,6.0,West,8.1,-,N/A,,Haze,280,2013-01-14 10:13:00
4:14 AM,-45.4,-54.4,60,30.01,5.0,West,8.1,-,N/A,,Haze,280,2013-01-14 10:14:00
4:16 AM,-45.4,-54.4,60,30.01,2.5,West,8.1,-,N/A,,Clear,280,2013-01-14 10:16:00
4:17 AM,-45.4,-54.4,60,30.01,2.2,West,8.1,-,N/A,,Clear,280,2013-01-14 10:17:00
4:24 AM,-45.4,-54.4,60,30.00,2.5,WNW,9.2,-,N/A,,Clear,300,2013-01-14 10:24:00
4:25 AM,-45.4,-56.2,54,30.00,3.0,WNW,9.2,-,N/A,,Clear,300,2013-01-14 10:25:00
4:27 AM,-45.4,-54.4,60,30.00,7.0,WNW,8.1,-,N/A,,Clear,300,2013-01-14 10:27:00
4:31 AM,-45.4,-54.4,60,30.00,5.0,WNW,6.9,-,N/A,,Haze,300,2013-01-14 10:31:00
4:42 AM,-43.6,-52.6,60,30.00,6.0,WNW,8.1,-,N/A,,Haze,300,2013-01-14 10:42:00
4:47 AM,-43.6,-52.6,60,30.00,5.0,WNW,8.1,-,N/A,,Haze,300,2013-01-14 10:47:00
4:49 AM,-43.6,-52.6,60,30.00,2.5,WNW,8.1,-,N/A,,Clear,300,2013-01-14 10:49:00
4:50 AM,-43.6,-52.6,60,30.00,2.2,WNW,8.1,-,N/A,,Clear,300,2013-01-14 10:50:00
4:54 AM,-43.6,-52.6,60,30.00,1.2,WNW,8.1,-,N/A,,Clear,290,2013-01-14 10:54:00
5:00 AM,-43.6,-52.6,60,30.00,1.2,WNW,6.9,-,N/A,,Clear,290,2013-01-14 11:00:00
5:04 AM,-43.6,-52.6,60,30.00,1.5,WNW,6.9,-,N/A,Snow,Light Snow,300,2013-01-14 11:04:00
5:21 AM,-43.6,-52.6,60,30.00,2.5,NNW,6.9,-,N/A,Snow,Light Snow,330,2013-01-14 11:21:00
5:23 AM,-43.6,-52.6,60,29.99,3.0,NW,6.9,-,N/A,Snow,Light Snow,320,2013-01-14 11:23:00
5:27 AM,-43.6,-52.6,60,30.00,5.0,WNW,6.9,-,N/A,,Haze,300,2013-01-14 11:27:00
5:28 AM,-43.6,-52.6,60,29.99,6.0,WNW,6.9,-,N/A,,Haze,300,2013-01-14 11:28:00
5:31 AM,-43.6,-52.6,60,29.99,5.0,WNW,6.9,-,N/A,,Haze,290,2013-01-14 11:31:00
5:33 AM,-43.6,-52.6,60,29.99,2.5,WNW,6.9,-,N/A,,Clear,290,2013-01-14 11:33:00
5:36 AM,-43.6,-52.6,60,29.99,2.0,West,6.9,-,N/A,,Clear,280,2013-01-14 11:36:00
5:39 AM,-43.6,-52.6,60,29.99,1.2,West,6.9,-,N/A,,Clear,280,2013-01-14 11:39:00
5:42 AM,-43.6,-52.6,60,29.99,1.2,West,5.8,-,N/A,,Partly Cloudy,270,2013-01-14 11:42:00
5:51 AM,-43.6,-52.6,60,29.99,0.8,WNW,3.5,-,N/A,,Mostly Cloudy,290,2013-01-14 11:51:00
5:53 AM,-43.6,-50.8,67,29.99,0.8,West,4.6,-,N/A,,Mostly Cloudy,270,2013-01-14 11:53:00
6:00 AM,-45,-54,38,29.99,,Calm,Calm,,,,,,2013-01-14 12:00:00
6:00 AM,-43.6,-52.6,60,29.99,0.8,WSW,4.6,-,N/A,,Mostly Cloudy,250,2013-01-14 12:00:00
6:19 AM,-43.6,-52.6,60,29.99,0.5,West,5.8,-,N/A,Fog,Light Freezing Fog,270,2013-01-14 12:19:00
6:20 AM,-43.6,-52.6,60,29.98,0.5,West,5.8,-,N/A,Fog,Light Freezing Fog,280,2013-01-14 12:20:00
6:23 AM,-43.6,-52.6,60,29.98,0.5,West,5.8,-,N/A,Fog,Light Freezing Fog,270,2013-01-14 12:23:00
6:24 AM,-43.6,-52.6,60,29.98,0.5,West,5.8,-,N/A,Snow,Snow,270,2013-01-14 12:24:00
6:35 AM,-43.6,-52.6,60,29.98,0.5,West,4.6,-,N/A,Snow,Snow,260,2013-01-14 12:35:00
6:42 AM,-43.6,-54.4,54,29.97,0.6,West,5.8,-,N/A,,Mostly Cloudy,270,2013-01-14 12:42:00
6:58 AM,-43.6,-52.6,60,29.97,0.5,West,5.8,-,N/A,Fog,Light Freezing Fog,260,2013-01-14 12:58:00
7:00 AM,-43.6,-52.6,60,29.97,1.5,West,5.8,-,N/A,,Clear,260,2013-01-14 13:00:00
8:00 AM,-43.6,-52.6,60,29.97,1.5,WSW,4.6,-,N/A,,Scattered Clouds,240,2013-01-14 14:00:00
9:00 AM,-45.4,-54.4,60,29.96,1.5,WSW,4.6,-,N/A,,Scattered Clouds,240,2013-01-14 15:00:00
10:00 AM,-45.4,-54.4,60,29.94,1.0,West,4.6,-,N/A,,Scattered Clouds,260,2013-01-14 16:00:00
12:00 PM,-46,-55,39,29.92,,SW,4.6,,,,,230,2013-01-14 18:00:00
12:00 PM,-45.4,-54.4,60,29.92,0.8,WSW,8.1,-,N/A,,Scattered Clouds,240,2013-01-14 18:00:00
1:00 PM,-43.6,-52.6,60,29.91,1.0,West,5.8,-,N/A,,Scattered Clouds,260,2013-01-14 19:00:00
2:00 PM,-43.6,-52.6,60,29.92,1.5,Calm,Calm,-,N/A,,Scattered Clouds,0,2013-01-14 20:00:00
3:00 PM,-43.6,-52.6,60,29.91,0.6,West,5.8,-,N/A,,Scattered Clouds,270,2013-01-14 21:00:00
4:00 PM,-45.4,-54.4,60,29.91,1.5,West,3.5,-,N/A,,Scattered Clouds,260,2013-01-14 22:00:00
5:00 PM,-41.8,-50.8,60,29.90,1.5,SSE,3.5,-,N/A,,Scattered Clouds,160,2013-01-14 23:00:00
5:27 PM,-41.8,-50.8,60,29.90,1.5,East,3.5,-,N/A,Snow,Light Snow,90,2013-01-14 23:27:00
6:00 PM,-43,-51,43,29.88,,SSE,2.3,,,,,150,2013-01-15 00:00:00
6:00 PM,-41.8,-50.8,60,29.89,4.0,South,4.6,-,N/A,Snow,Light Snow,180,2013-01-15 00:00:00
6:39 PM,-41.8,-50.8,60,29.88,1.0,SW,4.6,-,N/A,Snow,Light Snow,220,2013-01-15 00:39:00
7:00 PM,-41.8,-50.8,60,29.88,1.0,SSW,2.3,-,N/A,Snow,Light Snow,200,2013-01-15 01:00:00
8:00 PM,-43.6,-52.6,60,29.88,1.2,ENE,5.8,-,N/A,,Clear,60,2013-01-15 02:00:00
8:01 PM,-43.6,-52.6,60,29.88,1.5,ENE,4.6,-,N/A,,Clear,70,2013-01-15 02:01:00
8:03 PM,-43.6,-52.6,60,29.88,3.0,East,4.6,-,N/A,,Clear,80,2013-01-15 02:03:00
8:17 PM,-43.6,-52.6,60,29.88,6.0,NE,5.8,-,N/A,,Haze,50,2013-01-15 02:17:00
9:00 PM,-43.6,-52.6,60,29.87,7.0,ENE,3.5,-,N/A,,Clear,70,2013-01-15 03:00:00
10:00 PM,-45.4,-54.4,60,29.86,7.0,NE,6.9,-,N/A,,Clear,50,2013-01-15 04:00:00
11:00 PM,-47.2,-56.2,59,29.85,8.0,NE,5.8,-,N/A,,Clear,50,2013-01-15 05:00:00